Location: Asheville, NC
(35.6000°N, 82.5500°W)
Time: 14:57:43
(UTC-05:00)

Vanguard 2 Rocket - Pass Details

Date: 07 December 2017
Orbit: 556 x 3326 km, 32.9° (Epoch: 18 January)

Event Time Altitude Azimuth Distance (km) Brightness Sun altitude
Exits shadow 03:11:55 43° 156° (SSE) 3,263 9.5 -51.0°
Drops below altitude 10° 03:19:44 10° 133° (SE) 4,527 10.7 -49.4°
Sets 03:22:42 0° 129° (SE) 5,212 11.2 -48.8°
